GW0203 Weather Reports


time (UTC)temp
F
wind
direction
speed
knots
gust
knots
rain 1hr
in
rain 24hr
in
rain mn
in
humidity
%
barometer
mb
20260502130433 52 262 3.5 7.8 0.00 0.00 0.00 83 1012.3
20260502123428 51 157 0.0 6.1 0.00 0.00 0.00 86 1012.5
20260502121925 50 74 0.0 6.1 0.00 0.00 0.00 86 1012.1
20260502120421 50 245 3.5 8.7 0.00 0.00 0.00 86 1012.2
20260502114917 50 197 2.6 6.1 0.00 0.00 0.00 88 1012.2
20260502113415 50 237 4.3 4.3 0.00 0.00 0.00 86 1011.9
20260502111914 49 210 3.5 5.2 0.00 0.00 0.00 85 1011.9
20260502110411 49 209 2.6 4.3 0.00 0.00 0.00 85 1011.8
20260502104909 49 180 0.0 3.5 0.00 0.00 0.00 86 1011.8
20260502103407 49 203 0.9 7.0 0.00 0.00 0.00 86 1011.5
20260502101903 48 225 0.0 4.3 0.00 0.00 0.00 85 1011.5
20260502100359 48 319 1.7 4.3 0.00 0.00 0.00 84 1011.4
20260502090349 48 274 2.6 7.8 0.00 0.00 0.00 79 1011.4
20260502070338 49 147 0.0 2.6 0.00 0.00 0.00 75 1011.1
20260502064838 50 222 2.6 3.5 0.00 0.00 0.00 74 1011.2
20260502063336 50 180 0.9 6.1 0.00 0.00 0.00 73 1011.5
20260502061836 50 235 3.5 6.1 0.00 0.00 0.00 76 1011.5
20260502060335 50 209 3.5 3.5 0.00 0.00 0.00 77 1011.6
20260502054831 49 199 0.0 5.2 0.00 0.00 0.00 77 1011.5
20260502053328 50 158 2.6 3.5 0.00 0.00 0.00 75 1011.7
20260502051827 50 159 1.7 4.3 0.00 0.00 0.00 73 1011.8
20260502050323 50 198 1.7 4.3 0.00 0.00 0.00 72 1011.6
20260502044820 50 213 1.7 2.6 0.00 0.00 0.00 73 1011.7
20260502043317 50 180 0.0 4.3 0.00 0.00 0.00 74 1011.9
20260502041817 50 180 0.9 3.5 0.00 0.00 0.00 74 1011.7
20260502040314 50 238 2.6 4.3 0.00 0.00 0.00 74 1011.6
20260502034810 50 199 1.7 1.7 0.00 0.00 0.00 74 1011.8
20260502033309 50 225 1.7 3.5 0.00 0.00 0.00 73 1011.8
20260502031806 51 195 2.6 3.5 0.00 0.00 0.00 72 1011.7
20260502030306 51 259 2.6 4.3 0.00 0.00 0.00 71 1011.5
20260502024804 51 227 2.6 7.0 0.00 0.00 0.00 71 1011.6
20260502023303 51 279 2.6 4.3 0.00 0.00 0.00 70 1011.5
20260502021759 52 265 3.5 6.1 0.00 0.00 0.00 70 1011.5
20260502020257 52 214 3.5 8.7 0.00 0.00 0.00 69 1011.5
20260502014754 53 270 3.5 6.1 0.00 0.00 0.00 65 1011.3
20260502013254 53 244 5.2 5.2 0.00 0.00 0.00 63 1011.3
20260502011752 53 247 3.5 8.7 0.00 0.00 0.00 62 1011.1
20260502010247 54 221 4.3 4.3 0.00 0.00 0.00 55 1011.0
20260502004745 55 229 6.1 6.1 0.00 0.00 0.00 54 1010.6
20260502003242 55 191 1.7 3.5 0.00 0.00 0.00 54 1010.3
20260502001738 55 221 1.7 5.2 0.00 0.00 0.00 54 1010.2
20260502000240 56 214 4.3 7.8 0.00 0.00 0.00 52 1009.8
20260501234736 56 192 6.1 6.1 0.00 0.00 0.00 54 1009.7
20260501233235 57 199 4.3 4.3 0.00 0.00 0.00 53 1009.5
20260501231730 60 200 3.5 5.2 0.00 0.00 0.00 48 1009.2
20260501230225 63 356 2.6 4.3 0.00 0.00 0.00 35 1009.0
20260501224721 64 343 2.6 6.1 0.00 0.00 0.00 35 1008.8
20260501223217 64 308 3.5 7.0 0.00 0.00 0.00 34 1008.6
20260501221713 64 237 1.7 2.6 0.00 0.00 0.00 42 1008.4
20260501220211 64 210 1.7 4.3 0.00 0.00 0.00 41 1008.5
20260501214710 67 270 1.7 4.3 0.00 0.00 0.00 32 1008.4
20260501213205 65 203 2.6 7.8 0.00 0.00 0.00 33 1008.4
20260501211701 66 325 3.5 6.1 0.00 0.00 0.00 34 1008.5
20260501210158 65 304 4.3 7.8 0.00 0.00 0.00 34 1008.4
20260501204654 66 294 4.3 6.1 0.00 0.00 0.00 33 1008.2
20260501203150 65 345 1.7 10.4 0.00 0.00 0.00 34 1008.2
20260501201646 66 0 2.6 6.1 0.00 0.00 0.00 35 1008.4
20260501200143 64 353 2.6 13.0 0.00 0.00 0.00 35 1008.3
20260501194642 64 240 0.9 6.1 0.00 0.00 0.00 38 1008.6
20260501193140 65 315 4.3 7.8 0.00 0.00 0.00 36 1008.5
20260501191637 64 322 5.2 8.7 0.00 0.00 0.00 38 1008.6
20260501190137 63 285 0.9 15.6 0.00 0.00 0.00 39 1008.8
20260501184632 66 357 2.6 7.8 0.00 0.00 0.00 40 1008.8
20260501183132 62 323 9.6 21.7 0.00 0.00 0.00 40 1008.8
20260501181628 62 326 4.3 7.8 0.00 0.00 0.00 42 1008.9
20260501180125 63 192 0.9 5.2 0.00 0.00 0.00 43 1008.9
20260501174621 59 347 6.1 16.5 0.00 0.00 0.00 45 1009.3
20260501173119 59 243 1.7 18.2 0.00 0.00 0.00 47 1009.5
20260501171618 59 244 6.1 10.4 0.00 0.00 0.00 50 1009.4
20260501170115 59 292 5.2 8.7 0.00 0.00 0.00 51 1009.5
20260501164614 58 322 3.5 7.8 0.00 0.00 0.00 54 1009.6
20260501163109 57 348 1.7 13.0 0.00 0.00 0.00 55 1009.4
20260501161606 56 336 7.0 10.4 0.00 0.00 0.00 55 1009.5
20260501154559 55 322 7.0 11.3 0.00 0.00 0.00 59 1009.8
20260501153055 55 312 3.5 9.6 0.00 0.00 0.00 60 1010.0
20260501151552 54 349 4.3 10.4 0.00 0.00 0.00 60 1010.1
20260501150053 54 327 2.6 5.2 0.00 0.00 0.00 62 1009.9
20260501144549 54 352 7.8 10.4 0.00 0.00 0.00 61 1010.0
20260501143043 55 26 9.6 12.2 0.00 0.00 0.00 60 1009.9
20260501141538 54 345 7.8 12.2 0.00 0.00 0.00 60 1010.1
20260501140033 54 341 4.3 10.4 0.00 0.00 0.00 61 1010.0
20260501134530 53 359 8.7 13.0 0.00 0.00 0.00 62 1010.1